When you browse on this site, cookies collect data to enhance your experience and personalize the content and advertising you see.
Visit our Privacy Policy to learn more. By continuing to use the site, you agree to this use of cookies and data.
  • In Deutschland
  • Länderverzeichnis
  • Für 7 Tage
  • Wassertemperatur
  • Wetterkarte
  • Widgets
  • user-avatar
    Anmelden

    Stündliche Wetter Trowbridge

    Heute, 10 Dezember, Dienstag

    Zeit Temperatur Niederschläge Wind Luftdruck Luftfeuchtigkeit
    00:00 +3°C° 0 mm 2 m/S 764 mmHg 88%
    01:00 +2°C° 0 mm 3 m/S 764 mmHg 87%
    02:00 +3°C° 0 mm 3 m/S 763 mmHg 87%
    03:00 +3°C° 0 mm 3 m/S 763 mmHg 87%
    04:00 +4°C° 0 mm 4 m/S 762 mmHg 88%
    05:00 +3°C° 0 mm 5 m/S 761 mmHg 89%
    06:00 +5°C° 0 mm 5 m/S 760 mmHg 90%
    07:00 +5°C° 0.3 mm 7 m/S 759 mmHg 90%
    08:00 +6°C° 0.3 mm 8 m/S 758 mmHg 90%
    09:00 +7°C° 0.3 mm 10 m/S 757 mmHg 90%
    10:00 +7°C° 0.7 mm 10 m/S 756 mmHg 91%
    11:00 +8°C° 0.7 mm 11 m/S 755 mmHg 91%
    12:00 +8°C° 0.7 mm 11 m/S 754 mmHg 92%
    13:00 +9°C° 0.3 mm 11 m/S 752 mmHg 91%
    14:00 +9°C° 0.3 mm 11 m/S 750 mmHg 90%
    15:00 +10°C° 0.3 mm 12 m/S 748 mmHg 90%
    16:00 +10°C° 1.2 mm 12 m/S 748 mmHg 90%
    17:00 +9°C° 1.2 mm 12 m/S 748 mmHg 89%
    18:00 +9°C° 1.2 mm 12 m/S 748 mmHg 89%
    19:00 +8°C° 1 mm 10 m/S 749 mmHg 87%
    20:00 +6°C° 1 mm 8 m/S 749 mmHg 85%
    21:00 +5°C° 1 mm 6 m/S 750 mmHg 83%
    22:00 +5°C° 0 mm 5 m/S 751 mmHg 83%
    23:00 +5°C° 0 mm 4 m/S 751 mmHg 84%

    Morgen, 11 Dezember, Mittwoch

    Zeit Temperatur Niederschläge Wind Luftdruck Luftfeuchtigkeit
    00:00 +4°C° 0 mm 4 m/S 752 mmHg 85%
    01:00 +4°C° 0 mm 3 m/S 752 mmHg 86%
    02:00 +3°C° 0 mm 3 m/S 752 mmHg 87%
    03:00 +3°C° 0 mm 3 m/S 751 mmHg 88%
    04:00 +3°C° 0 mm 3 m/S 751 mmHg 89%
    05:00 +3°C° 0 mm 3 m/S 751 mmHg 89%
    06:00 +3°C° 0 mm 3 m/S 751 mmHg 89%
    07:00 +3°C° 0 mm 3 m/S 750 mmHg 89%
    08:00 +3°C° 0 mm 3 m/S 750 mmHg 89%
    09:00 +3°C° 0 mm 4 m/S 749 mmHg 89%
    10:00 +4°C° 0 mm 4 m/S 749 mmHg 86%
    11:00 +5°C° 0 mm 4 m/S 748 mmHg 82%
    12:00 +6°C° 0 mm 5 m/S 748 mmHg 79%
    13:00 +6°C° 0.5 mm 5 m/S 747 mmHg 80%
    14:00 +5°C° 0.5 mm 5 m/S 747 mmHg 82%
    15:00 +3°C° 0.5 mm 5 m/S 747 mmHg 83%
    16:00 +2°C° 0 mm 5 m/S 747 mmHg 84%
    17:00 +3°C° 0 mm 4 m/S 748 mmHg 85%
    18:00 +1°C° 0 mm 4 m/S 748 mmHg 85%
    19:00 +2°C° 0 mm 3 m/S 749 mmHg 85%
    20:00 +2°C° 0 mm 3 m/S 749 mmHg 85%
    21:00 +1°C° 0 mm 3 m/S 750 mmHg 84%
    22:00 +1°C° 0 mm 3 m/S 750 mmHg 85%
    23:00 +1°C° 0 mm 3 m/S 750 mmHg 86%

    übermorgen, 12 Dezember, Donnerstag

    Zeit Temperatur Niederschläge Wind Luftdruck Luftfeuchtigkeit
    00:00 +1°C° 0 mm 3 m/S 750 mmHg 87%
    01:00 +1°C° 0 mm 3 m/S 750 mmHg 87%
    02:00 +1°C° 0 mm 3 m/S 750 mmHg 88%
    03:00 +1°C° 0 mm 3 m/S 749 mmHg 89%
    04:00 +1°C° 0 mm 3 m/S 748 mmHg 88%
    05:00 0°C° 0 mm 4 m/S 748 mmHg 88%
    06:00 0°C° 0 mm 4 m/S 747 mmHg 88%
    07:00 +2°C° 0.2 mm 5 m/S 745 mmHg 89%
    08:00 +3°C° 0.2 mm 6 m/S 744 mmHg 91%
    09:00 +4°C° 0.2 mm 8 m/S 742 mmHg 92%
    10:00 +5°C° 1.9 mm 8 m/S 740 mmHg 93%
    11:00 +6°C° 1.9 mm 9 m/S 737 mmHg 93%
    12:00 +7°C° 1.9 mm 10 m/S 735 mmHg 94%
    13:00 +7°C° 2.5 mm 9 m/S 733 mmHg 93%
    14:00 +8°C° 2.5 mm 9 m/S 731 mmHg 93%
    15:00 +9°C° 2.5 mm 8 m/S 729 mmHg 92%
    16:00 +7°C° 0.3 mm 9 m/S 728 mmHg 87%
    17:00 +6°C° 0.3 mm 10 m/S 728 mmHg 81%
    18:00 +4°C° 0.3 mm 11 m/S 727 mmHg 76%
    19:00 +3°C° 0.2 mm 10 m/S 727 mmHg 78%
    20:00 +2°C° 0.2 mm 9 m/S 728 mmHg 80%
    21:00 +1°C° 0.2 mm 8 m/S 728 mmHg 82%
    22:00 +1°C° 0.1 mm 9 m/S 727 mmHg 80%
    23:00 +1°C° 0.1 mm 9 m/S 727 mmHg 78%

    13 Dezember, Freitag

    Zeit Temperatur Niederschläge Wind Luftdruck Luftfeuchtigkeit
    00:00 +1°C° 0.1 mm 9 m/S 726 mmHg 76%
    01:00 +1°C° 0.4 mm 10 m/S 726 mmHg 81%
    02:00 +1°C° 0.4 mm 11 m/S 725 mmHg 86%
    03:00 0°C° 0.4 mm 13 m/S 724 mmHg 91%
    04:00 +1°C° 0.8 mm 13 m/S 724 mmHg 88%
    05:00 +3°C° 0.8 mm 14 m/S 724 mmHg 86%
    06:00 +3°C° 0.8 mm 14 m/S 724 mmHg 83%
    07:00 +3°C° 0.1 mm 14 m/S 726 mmHg 83%
    08:00 +3°C° 0.1 mm 13 m/S 727 mmHg 83%
    09:00 +3°C° 0.1 mm 12 m/S 728 mmHg 83%
    10:00 +3°C° 0 mm 12 m/S 729 mmHg 80%
    11:00 +4°C° 0 mm 12 m/S 730 mmHg 78%
    12:00 +4°C° 0 mm 12 m/S 731 mmHg 75%
    13:00 +4°C° 0 mm 11 m/S 731 mmHg 74%
    14:00 +3°C° 0 mm 11 m/S 732 mmHg 73%
    15:00 +3°C° 0 mm 11 m/S 732 mmHg 73%
    16:00 +3°C° 0 mm 10 m/S 733 mmHg 74%
    17:00 +2°C° 0 mm 10 m/S 733 mmHg 74%
    18:00 +2°C° 0 mm 9 m/S 733 mmHg 75%
    19:00 +2°C° 0 mm 9 m/S 733 mmHg 75%
    20:00 +2°C° 0 mm 8 m/S 734 mmHg 75%
    21:00 +3°C° 0 mm 7 m/S 734 mmHg 76%
    22:00 +3°C° 0 mm 7 m/S 734 mmHg 77%
    23:00 +3°C° 0 mm 7 m/S 734 mmHg 79%

    14 Dezember, Samstag

    Zeit Temperatur Niederschläge Wind Luftdruck Luftfeuchtigkeit
    00:00 +3°C° 0 mm 6 m/S 735 mmHg 80%
    01:00 +2°C° 0 mm 6 m/S 735 mmHg 80%
    02:00 +2°C° 0 mm 6 m/S 735 mmHg 80%
    03:00 +2°C° 0 mm 6 m/S 735 mmHg 80%
    04:00 +2°C° 0 mm 6 m/S 735 mmHg 80%
    05:00 +2°C° 0 mm 6 m/S 736 mmHg 80%
    06:00 +2°C° 0 mm 5 m/S 736 mmHg 80%
    07:00 +2°C° 0.6 mm 5 m/S 736 mmHg 84%
    08:00 +2°C° 0.6 mm 6 m/S 737 mmHg 88%
    09:00 +3°C° 0.6 mm 6 m/S 737 mmHg 92%
    10:00 +2°C° 0.7 mm 8 m/S 737 mmHg 86%
    11:00 +2°C° 0.7 mm 9 m/S 738 mmHg 80%
    12:00 +3°C° 0.7 mm 11 m/S 738 mmHg 73%
    13:00 +3°C° 0 mm 9 m/S 739 mmHg 73%
    14:00 +3°C° 0 mm 7 m/S 739 mmHg 72%
    15:00 +3°C° 0 mm 6 m/S 740 mmHg 72%
    16:00 +2°C° 0 mm 5 m/S 740 mmHg 74%
    17:00 +3°C° 0 mm 4 m/S 740 mmHg 77%
    18:00 +2°C° 0 mm 3 m/S 740 mmHg 80%
    19:00 +2°C° 1.8 mm 3 m/S 739 mmHg 86%
    20:00 +2°C° 1.8 mm 3 m/S 738 mmHg 92%
    21:00 +2°C° 1.8 mm 3 m/S 738 mmHg 97%
    22:00 +2°C° 0.6 mm 2 m/S 738 mmHg 96%
    23:00 +2°C° 0.6 mm 2 m/S 738 mmHg 94%

    15 Dezember, Sonntag

    Zeit Temperatur Niederschläge Wind Luftdruck Luftfeuchtigkeit
    00:00 +1°C° 0.6 mm 2 m/S 738 mmHg 92%
    01:00 0°C° 0 mm 3 m/S 739 mmHg 92%
    02:00 -1°C° 0 mm 4 m/S 739 mmHg 91%
    03:00 0°C° 0 mm 4 m/S 740 mmHg 90%
    04:00 0°C° 0.1 mm 5 m/S 740 mmHg 88%
    05:00 0°C° 0.1 mm 5 m/S 740 mmHg 86%
    06:00 +1°C° 0.1 mm 5 m/S 741 mmHg 83%
    07:00 +1°C° 0 mm 6 m/S 741 mmHg 82%
    08:00 +1°C° 0 mm 6 m/S 741 mmHg 81%
    09:00 +2°C° 0 mm 7 m/S 742 mmHg 80%
    10:00 +3°C° 0 mm 6 m/S 742 mmHg 79%
    11:00 +4°C° 0 mm 6 m/S 742 mmHg 79%
    12:00 +5°C° 0 mm 6 m/S 742 mmHg 79%
    13:00 +4°C° 0 mm 6 m/S 742 mmHg 80%
    14:00 +5°C° 0 mm 5 m/S 742 mmHg 81%
    15:00 +5°C° 0 mm 5 m/S 742 mmHg 82%
    16:00 +5°C° 0.2 mm 5 m/S 742 mmHg 83%
    17:00 +3°C° 0.2 mm 5 m/S 742 mmHg 83%
    18:00 +3°C° 0.2 mm 5 m/S 742 mmHg 84%
    19:00 +3°C° 0.1 mm 5 m/S 742 mmHg 84%
    20:00 +3°C° 0.1 mm 5 m/S 742 mmHg 85%
    21:00 +3°C° 0.1 mm 5 m/S 742 mmHg 85%
    22:00 +3°C° 0.1 mm 5 m/S 742 mmHg 85%
    23:00 +3°C° 0.1 mm 5 m/S 742 mmHg 84%
    Mehr zeigen